TimeEDT,TemperatureF,Dew PointF,Humidity,Sea Level PressureIn,VisibilityMPH,Wind Direction,Wind SpeedMPH,Gust SpeedMPH,PrecipitationIn,Events,Conditions,WindDirDegrees,DateUTC
12:53 AM,61.0,37.9,42,29.83,10.0,West,21.9,28.8,N/A,,Clear,270,2013-10-02 04:53:00
1:53 AM,60.1,39.9,47,29.85,10.0,West,19.6,27.6,N/A,,Clear,280,2013-10-02 05:53:00
2:53 AM,57.9,41.0,53,29.87,10.0,West,15.0,-,N/A,,Clear,280,2013-10-02 06:53:00
3:53 AM,57.9,39.9,51,29.89,10.0,West,16.1,25.3,N/A,,Clear,270,2013-10-02 07:53:00
4:53 AM,57.9,39.9,51,29.90,10.0,West,18.4,24.2,N/A,,Clear,280,2013-10-02 08:53:00
5:53 AM,57.0,41.0,55,29.92,10.0,West,18.4,25.3,N/A,,Clear,280,2013-10-02 09:53:00
6:53 AM,55.0,41.0,59,29.93,10.0,WNW,13.8,-,N/A,,Clear,290,2013-10-02 10:53:00
7:53 AM,53.1,42.1,66,29.95,10.0,West,11.5,-,N/A,,Clear,270,2013-10-02 11:53:00
8:53 AM,54.0,43.0,66,29.97,10.0,West,9.2,-,N/A,,Clear,260,2013-10-02 12:53:00
9:53 AM,57.9,43.0,58,29.99,10.0,West,11.5,-,N/A,,Clear,280,2013-10-02 13:53:00
10:53 AM,61.0,41.0,48,30.00,10.0,West,15.0,-,N/A,,Clear,270,2013-10-02 14:53:00
11:53 AM,63.0,39.9,43,30.01,10.0,West,12.7,19.6,N/A,,Clear,280,2013-10-02 15:53:00
12:53 PM,66.0,39.0,37,30.01,10.0,West,12.7,-,N/A,,Clear,260,2013-10-02 16:53:00
1:53 PM,68.0,35.1,30,30.02,10.0,West,13.8,23.0,N/A,,Clear,270,2013-10-02 17:53:00
2:53 PM,69.1,35.1,29,30.01,10.0,West,16.1,21.9,N/A,,Clear,280,2013-10-02 18:53:00
3:53 PM,69.1,33.1,26,30.00,10.0,West,13.8,21.9,N/A,,Clear,260,2013-10-02 19:53:00
4:53 PM,69.1,34.0,27,30.00,10.0,WNW,13.8,-,N/A,,Clear,290,2013-10-02 20:53:00
5:53 PM,66.9,30.9,26,30.00,10.0,West,10.4,-,N/A,,Clear,280,2013-10-02 21:53:00
6:53 PM,64.0,37.0,37,30.01,10.0,West,4.6,-,N/A,,Clear,260,2013-10-02 22:53:00
7:53 PM,53.1,43.0,69,30.02,10.0,NNW,3.5,-,N/A,,Clear,340,2013-10-02 23:53:00
8:53 PM,53.1,44.1,71,30.02,10.0,North,4.6,-,N/A,,Partly Cloudy,10,2013-10-03 00:53:00
9:53 PM,57.0,37.9,49,30.02,10.0,North,6.9,-,N/A,,Overcast,360,2013-10-03 01:53:00
10:53 PM,57.9,37.0,46,30.04,10.0,North,6.9,-,N/A,,Overcast,350,2013-10-03 02:53:00
11:53 PM,57.0,39.0,51,30.03,10.0,NW,3.5,-,0.00,Rain,Light Rain,310,2013-10-03 03:53:00